This is the latest recevied weather packets stored in our database for station/object KMASWX. If no packets are shown the sender has not sent any weather packets the latest 10 day(s).
| Time | Temp. | Humidity | Pressure | Rain* | Wind** | Luminosity | Snow |
|---|---|---|---|---|---|---|---|
| 1777561038 | 8.89° C | 72% | - | 0 mm | - | - | - |
| 1777560734 | 8.89° C | 70% | - | 0 mm | - | - | - |
| 1777560431 | 9.44° C | 69% | - | 0 mm | - | - | - |
| 1777560124 | 9.44° C | 70% | - | 0 mm | - | - | - |
| 1777559820 | 8.89° C | 72% | - | 0 mm | - | - | - |
| 1777559516 | 8.89° C | 71% | - | 0 mm | - | - | - |
| 1777558905 | 8.33° C | 73% | - | 0 mm | - | - | - |
| 1777558595 | 8.33° C | 76% | - | 0 mm | - | - | - |
| 1777558291 | 7.22° C | 77% | - | 0 mm | - | - | - |
| 1777557984 | 6.67° C | 80% | - | 0 mm | - | - | - |
| 1777557681 | 6.11° C | 81% | - | 0 mm | - | - | - |
| 1777557377 | 5.56° C | 81% | - | 0 mm | - | - | - |
| 1777557071 | 5.56° C | 82% | - | 0 mm | - | - | - |
| 1777556766 | 5° C | 81% | - | 0 mm | - | - | - |
| 1777556462 | 5.56° C | 81% | - | 0 mm | - | - | - |
| 1777556155 | 5° C | 81% | - | 0 mm | - | - | - |
| 1777555543 | 5.56° C | 80% | - | 0 mm | - | - | - |
| 1777555235 | 5.56° C | 81% | - | 0 mm | - | - | - |
| 1777554932 | 5° C | 81% | - | 0 mm | - | - | - |
| 1777554628 | 5.56° C | 81% | - | 0 mm | - | - | - |
| 1777554325 | 5° C | 82% | - | 0 mm | - | - | - |
| 1777554021 | 5° C | 81% | - | 0 mm | - | - | - |
| 1777553715 | 5° C | 81% | - | 0 mm | - | - | - |
| 1777553108 | 5° C | 80% | - | 0 mm | - | - | - |
| 1777552804 | 5° C | 81% | - | 0 mm | - | - | - |
* Rain latest 24 hours (hover to see other rain measurements)
** Current wind speed in m/s (hover to see current wind gust speed)